Le nostre stazioni meteo in Italia

Pubblicità
Il mio iltempo24.it
Luqa, Malta (16597): Temperatura & dewpoint: 17.10.2017 04:00:00 - 23.10.2017 04:00:00 (CEST)Luqa, Malta (16597): velocità del vento: 17.10.2017 04:00:00 - 23.10.2017 04:00:00 (CEST)Luqa, Malta (16597): direzione del vento: 17.10.2017 04:00:00 - 23.10.2017 04:00:00 (CEST)Luqa, Malta (16597): reduced air pressure: 17.10.2017 04:00:00 - 23.10.2017 04:00:00 (CEST)Luqa, Malta (16597): visibility: 17.10.2017 04:00:00 - 23.10.2017 04:00:00 (CEST)
Data & Tempo tt [°C] td [°C] ff [km/h] ff [kn] dd ppp [hPa] vv [km]
23.10.2017 04:00:00 20,0 18,0 13 7 O - 10
23.10.2017 03:00:00 20,0 18,0 15 8 ONO - 10
23.10.2017 02:00:00 20,7 17,6 21 11 NO 1016,5 10
23.10.2017 01:00:00 20,0 18,0 15 8 ONO - 10
23.10.2017 00:00:00 21,0 18,0 15 8 ONO - 10
22.10.2017 23:00:00 20,6 18,4 15 8 ONO 1018,2 10
22.10.2017 22:00:00 20,0 18,0 13 7 ONO - 10
22.10.2017 21:00:00 20,0 18,0 13 7 ONO - 10
22.10.2017 20:00:00 21,3 17,8 15 8 NO 1017,9 10
22.10.2017 19:00:00 21,0 17,0 16 9 NO - 10
22.10.2017 18:00:00 22,0 17,0 21 11 NO - 10
22.10.2017 17:00:00 23,4 17,6 18 10 ONO 1018,1 10
22.10.2017 16:00:00 24,0 17,0 16 9 NO - 10
22.10.2017 15:00:00 25,0 18,0 18 10 ONO - 10
22.10.2017 14:00:00 25,2 16,5 18 10 ONO 1019,5 10
22.10.2017 13:00:00 25,0 18,0 18 10 NO - 10
22.10.2017 12:00:00 25,0 18,0 22 12 NO - 10
22.10.2017 11:00:00 23,8 18,2 18 10 ONO 1021,0 10
22.10.2017 10:00:00 23,0 19,0 15 8 NO - 10
22.10.2017 09:00:00 22,0 19,0 9 5 NO - 10
22.10.2017 08:00:00 19,1 18,2 9 5 O 1020,5 10
22.10.2017 07:00:00 19,0 18,0 11 6 ONO - 9
22.10.2017 06:00:00 19,0 18,0 9 5 ONO - 8
22.10.2017 05:00:00 18,5 18,4 9 5 O 1020,3 8
22.10.2017 04:00:00 18,0 18,0 4 2 ONO - 9
22.10.2017 03:00:00 19,0 19,0 4 2 O - 9
22.10.2017 02:00:00 18,6 18,1 4 2 OSO 1020,9 9
22.10.2017 01:00:00 19,0 18,0 2 1 - - 10
22.10.2017 00:00:00 19,0 18,0 4 2 - - 10
21.10.2017 23:00:00 21,0 19,0 8 4 ENE - 10
21.10.2017 22:00:00 20,0 19,0 9 5 ENE - 10
21.10.2017 21:00:00 21,0 19,0 9 5 NE - 10
21.10.2017 20:00:00 20,8 18,5 4 2 - 1020,2 10
21.10.2017 19:00:00 21,0 18,0 8 4 SE - 10
21.10.2017 18:00:00 22,0 19,0 9 5 E - 10
21.10.2017 17:00:00 23,0 19,0 11 6 E - 10
21.10.2017 16:00:00 23,0 19,0 15 8 E - 10
21.10.2017 15:00:00 23,0 19,0 16 9 E - 10
21.10.2017 14:00:00 23,5 18,7 21 11 ESE 1019,5 10
21.10.2017 13:00:00 24,0 19,0 22 12 E - 10
21.10.2017 12:00:00 24,0 19,0 22 12 ESE - 10
21.10.2017 11:00:00 22,8 18,9 22 12 E 1019,9 10
21.10.2017 10:00:00 23,0 19,0 22 12 ESE - 10
21.10.2017 09:00:00 22,0 19,0 21 11 ESE - 10
21.10.2017 08:00:00 21,6 18,9 18 10 E 1018,3 10
21.10.2017 07:00:00 22,0 19,0 15 8 E - 10
21.10.2017 06:00:00 22,0 19,0 16 9 ESE - 10
21.10.2017 05:00:00 22,0 19,0 15 8 ESE - 10
21.10.2017 04:00:00 22,0 19,0 16 9 ESE - 10
21.10.2017 03:00:00 22,0 19,0 13 7 ESE - 10
21.10.2017 02:00:00 22,2 19,5 22 12 SE 1018,5 10
21.10.2017 01:00:00 22,0 20,0 18 10 ESE - 10
21.10.2017 00:00:00 22,0 20,0 21 11 SE - 10
20.10.2017 23:00:00 22,0 20,0 21 11 ESE - 10
20.10.2017 22:00:00 22,0 21,0 22 12 SE - 10
20.10.2017 21:00:00 23,0 21,0 24 13 SE - 10
20.10.2017 20:00:00 22,7 20,4 22 12 SE 1017,8 10
20.10.2017 19:00:00 23,0 21,0 24 13 SE - 10
20.10.2017 18:00:00 23,0 20,0 26 14 SE - 10
20.10.2017 17:00:00 23,2 20,1 26 14 SE 1016,9 10
20.10.2017 16:00:00 24,0 20,0 26 14 SSE - 10
20.10.2017 15:00:00 25,0 20,0 34 18 SSE - 10
20.10.2017 14:00:00 24,6 20,2 29 16 SSE 1016,8 10
20.10.2017 13:00:00 25,0 20,0 28 15 SSE - 10
20.10.2017 12:00:00 25,0 20,0 29 16 SSE - 10
20.10.2017 11:00:00 24,6 19,8 26 14 SSE 1017,8 10
20.10.2017 10:00:00 24,0 20,0 22 12 SSE - 10
20.10.2017 09:00:00 23,0 20,0 18 10 SSE - 10
20.10.2017 08:00:00 21,7 19,1 11 6 SSE 1016,9 10
20.10.2017 07:00:00 22,0 19,0 15 8 S - 10
20.10.2017 06:00:00 21,0 20,0 11 6 S - 10
20.10.2017 05:00:00 19,2 18,7 11 6 SSE 1016,4 10
20.10.2017 04:00:00 19,0 19,0 13 7 SSE - 10
20.10.2017 03:00:00 19,0 18,0 11 6 SSE - 10
20.10.2017 02:00:00 19,5 18,3 9 5 SSE 1017,0 10
20.10.2017 01:00:00 19,0 18,0 11 6 SSE - 10
20.10.2017 00:00:00 20,0 18,0 9 5 SSE - 10
19.10.2017 23:00:00 19,7 18,5 11 6 SSE 1017,6 10
19.10.2017 22:00:00 21,0 19,0 8 4 S - 10
19.10.2017 21:00:00 21,0 19,0 9 5 SSE - 10
19.10.2017 20:00:00 21,5 18,8 8 4 SSE 1017,6 10
19.10.2017 19:00:00 22,0 19,0 9 5 S - 10
19.10.2017 18:00:00 23,0 18,0 8 4 - - 10
19.10.2017 17:00:00 23,1 17,4 11 6 S 1017,1 10
19.10.2017 16:00:00 24,0 18,0 13 7 SSO - 10
19.10.2017 15:00:00 24,0 19,0 16 9 S - 10
19.10.2017 14:00:00 24,3 16,8 13 7 SSO 1017,9 10
19.10.2017 13:00:00 24,0 17,0 18 10 S - 10
19.10.2017 12:00:00 24,0 17,0 15 8 S - 10
19.10.2017 11:00:00 23,6 16,2 15 8 S 1019,1 10
19.10.2017 10:00:00 23,0 16,0 15 8 S - 10
19.10.2017 09:00:00 22,0 17,0 15 8 S - 10
19.10.2017 08:00:00 19,1 16,6 9 5 SSE 1018,4 10
19.10.2017 07:00:00 18,0 16,0 5 3 SSE - 10
19.10.2017 06:00:00 17,0 15,0 4 2 - - 10
19.10.2017 05:00:00 17,0 15,0 9 5 S 1018,7 10
19.10.2017 04:00:00 17,0 15,0 4 2 S - 10
19.10.2017 03:00:00 18,0 16,0 8 4 S - 10
19.10.2017 02:00:00 18,3 15,1 5 3 S 1019,3 10
19.10.2017 01:00:00 18,0 16,0 9 5 SSO - 10
19.10.2017 00:00:00 18,0 15,0 8 4 SSO - 10
18.10.2017 23:00:00 17,2 14,7 5 3 SSO 1019,9 10
18.10.2017 22:00:00 18,0 15,0 2 1 SSO - 10
18.10.2017 21:00:00 19,0 15,0 2 1 SSO - 10
18.10.2017 20:00:00 19,9 15,3 2 1 S 1019,4 10
18.10.2017 19:00:00 20,0 16,0 4 2 - - 10
18.10.2017 18:00:00 21,0 15,0 8 4 ESE - 10
18.10.2017 17:00:00 22,6 15,7 9 5 ESE 1018,9 10
18.10.2017 16:00:00 23,0 16,0 11 6 E - 10
18.10.2017 15:00:00 25,0 12,0 8 4 OSO - 10
18.10.2017 14:00:00 24,0 14,2 11 6 OSO 1019,9 10
18.10.2017 13:00:00 24,0 16,0 13 7 OSO - 10
18.10.2017 12:00:00 23,0 16,0 8 4 - - 10
18.10.2017 11:00:00 22,5 15,9 8 4 O 1021,6 10
18.10.2017 10:00:00 23,0 17,0 5 3 - - 10
18.10.2017 09:00:00 21,0 17,0 2 1 - - 10
18.10.2017 08:00:00 16,6 16,5 4 2 OSO 1021,5 10
18.10.2017 07:00:00 16,0 16,0 4 2 O - 10
18.10.2017 06:00:00 16,0 16,0 5 3 ONO - 10
18.10.2017 05:00:00 16,4 16,0 5 3 ONO 1021,6 10
18.10.2017 04:00:00 16,0 16,0 5 3 ONO - 10
18.10.2017 03:00:00 16,0 16,0 5 3 NO - 10
18.10.2017 02:00:00 16,1 15,4 5 3 O 1022,9 10
18.10.2017 01:00:00 17,0 16,0 4 2 ONO - 9
18.10.2017 00:00:00 17,0 16,0 4 2 ONO - 9
17.10.2017 23:00:00 17,3 15,7 2 1 O 1023,8 10
17.10.2017 22:00:00 18,0 16,0 2 1 ONO - 10
17.10.2017 21:00:00 19,0 16,0 2 1 - - 10
17.10.2017 20:00:00 19,5 15,6 4 2 - 1023,5 10
17.10.2017 19:00:00 20,0 16,0 5 3 SSE - 10
17.10.2017 18:00:00 20,0 16,0 8 4 SSE - 10
17.10.2017 17:00:00 21,5 16,4 8 4 SE 1023,6 10
17.10.2017 16:00:00 23,0 16,0 8 4 SE - 10
17.10.2017 15:00:00 23,0 17,0 8 4 SE - 10
17.10.2017 14:00:00 23,2 16,7 8 4 SE 1024,6 10
17.10.2017 13:00:00 23,0 17,0 9 5 SO - 10
17.10.2017 12:00:00 23,0 16,0 8 4 NNE - 10
17.10.2017 11:00:00 22,8 16,4 4 2 - 1026,3 10
17.10.2017 10:00:00 22,0 17,0 5 3 - - 10
17.10.2017 09:00:00 21,0 18,0 2 1 - - 9
17.10.2017 08:00:00 16,9 16,6 4 2 ONO 1025,7 8
17.10.2017 07:00:00 16,0 16,0 5 3 O - 8
17.10.2017 06:00:00 17,0 17,0 5 3 O - 8
17.10.2017 05:00:00 17,0 16,7 4 2 ONO 1025,7 9
17.10.2017 04:00:00 17,0 17,0 2 1 OSO - 9

tt = Temperatura
td = dewpoint
ff = velocità del vento
dd = direzione del vento
ppp = reduced air pressure
vv = visibility

Stazioni seguenti

WeatherPro
AMSI
MeteoEarth